GOMX-1 (39430 NORAD) Tracking and Keplerian Element Data

This shows tracking and keplerian element data for the satellite.

Feedback or suggestion? Click here.




ElementValue
Catalog39430
NameGOMX-1
Epoch Orbit47915
Epoch Day325.08417661
Epoch Year2022
RAAN223.2561
Inclination97.7949
Eccentricity0.0146767
Argument of Perigee271.005
Mean Anonmoly87.4326
Mean Motion14.60651804
Decay Rate1.649E-05
L11 39430U 13066Q 22325.08417661 .00001649 00000+0 30027-3 0 9996
L22 39430 97.7949 223.2561 0146767 271.0050 87.4326 14.60651804479154



Live tracking and technical data element details for GOMX-1 (NORAD 39430). GOMX-1 can be tracked NOW for your location showing map with azimuth and elevation plus other details from your city location.







IsCatalogInMostPopularTable: catalog: 39430, numindb: 540
Update: records affected: 1



GetName: 39430 GOMX-1

Hit Count: updated at: Mon, 28 Nov 2022 04:18:35 GMT